Montgomery, NY

9:06 AM EST on December 15, 2019 (GMT -0500)
Orange County

Weather History for KMGJ - July, 2019

Change the Weather History Date:

Saturday, July 27, 2019

  Actual Average (WUND) Record (WUND)
Temperature  
Mean Temperature 73 °F -  
Max Temperature 84 °F - - (-1)
Min Temperature 62 °F - - (-1)
Cooling Degree Days 8    
Growing Degree Days 23 (Base 50)    
Moisture  
Dew Point 64 °F    
Average Humidity 74    
Maximum Humidity 100    
Minimum Humidity 46    
Precipitation  
Precipitation 0.00 in - - ()
Sea Level Pressure  
Sea Level Pressure 30.22 in    
Wind  
Wind Speed 3 mph (SSW)    
Max Wind Speed 12 mph    
Max Gust Speed -    
Visibility 10 miles    
Events      
Averages and records for this station are not official NWS values.
T = Trace of Precipitation, MM = Missing Value Source: NWS Daily Summary

Daily Weather History Graph

Daily Weather History Graph

Search for Another Location

Airport or City:

Astronomy

Jul. 27, 2019 Rise Set
Actual Time 5:46 AM EDT 8:19 PM EDT
Civil Twilight 5:14 AM EDT 8:51 PM EDT
Nautical Twilight 4:35 AM EDT 9:31 PM EDT
Astronomical Twilight 3:50 AM EDT 10:15 PM EDT
Moon 1:31 AM EDT (7/27) 4:08 PM EDT (7/27)
Length of Visible Light 15h 36m
Length of Day
14h 33m
Waning Crescent, 24% of the Moon is Illuminated
Jul 27
Waning Crescent
Jul 31
New
Aug 7
First Quarter
Aug 15
Full
Aug 23
Last Quarter

Hourly Weather History & Observations

Time (EDT) Temp. Heat Index Dew Point Humidity Pressure Visibility Wind Dir Wind Speed Gust Speed Precip Events Conditions
12:54 AM 64.9 °F - 63.0 °F 93% 30.26 in 10.0 mi Calm Calm - N/A   Clear
1:54 AM 62.1 °F - 62.1 °F 100% 30.25 in 10.0 mi South 3.5 mph - N/A   Clear
2:54 AM 63.0 °F - 62.1 °F 97% 30.25 in 10.0 mi Calm Calm - N/A   Clear
3:54 AM 63.0 °F - 62.1 °F 97% 30.25 in 10.0 mi Calm Calm - N/A   Mostly Cloudy
4:54 AM 63.0 °F - 62.1 °F 97% 30.25 in 10.0 mi Calm Calm - N/A   Overcast
5:54 AM 64.0 °F - 63.0 °F 96% 30.27 in 10.0 mi Calm Calm - N/A   Mostly Cloudy
6:54 AM 64.9 °F - 63.0 °F 93% 30.28 in 10.0 mi Calm Calm - N/A   Clear
7:54 AM 64.9 °F - 64.0 °F 97% 30.28 in 10.0 mi SW 3.5 mph - N/A   Clear
8:54 AM 71.1 °F - 64.9 °F 81% 30.28 in 10.0 mi SW 4.6 mph - N/A   Clear
9:54 AM 77.0 °F - 66.9 °F 71% 30.27 in 10.0 mi Calm Calm - N/A   Clear
10:54 AM 80.1 °F 82.1 °F 66.0 °F 62% 30.27 in 10.0 mi Variable 3.5 mph - N/A   Clear
11:54 AM 82.9 °F 85.4 °F 66.9 °F 58% 30.25 in 10.0 mi Variable 3.5 mph - N/A   Partly Cloudy
12:54 PM 84.0 °F 84.5 °F 62.1 °F 47% 30.23 in 10.0 mi Variable 4.6 mph - N/A   Clear
1:54 PM 84.9 °F 85.9 °F 63.0 °F 48% 30.20 in 10.0 mi Variable 4.6 mph - N/A   Partly Cloudy
2:54 PM 84.9 °F 86.1 °F 64.0 °F 49% 30.18 in 10.0 mi WSW 11.5 mph - N/A   Partly Cloudy
3:54 PM 84.9 °F 85.4 °F 62.1 °F 46% 30.17 in 10.0 mi South 9.2 mph - N/A   Clear
4:54 PM 84.9 °F 85.4 °F 62.1 °F 46% 30.15 in 10.0 mi WSW 8.1 mph - N/A   Clear
5:54 PM 84.0 °F 84.9 °F 63.0 °F 49% 30.14 in 10.0 mi SW 11.5 mph - N/A   Clear
6:54 PM 82.0 °F 83.4 °F 64.0 °F 54% 30.14 in 10.0 mi SW 9.2 mph - N/A   Clear
7:54 PM 78.1 °F - 64.0 °F 62% 30.14 in 10.0 mi South 4.6 mph - N/A   Clear
8:54 PM 73.0 °F - 66.0 °F 79% 30.15 in 10.0 mi Calm Calm - N/A   Clear
9:54 PM 70.0 °F - 64.9 °F 84% 30.17 in 10.0 mi SSW 4.6 mph - N/A   Clear
10:54 PM 69.1 °F - 64.9 °F 87% 30.16 in 10.0 mi Calm Calm - N/A   Clear